www.pogodaiklimat.ru

Погода и климат >> Архив погоды >> Россия >> Архангельская область >> Карпогоры


ПОГОДА в Карпогорах

  • Прогноз погоды в Карпогорах
  • Монитор погоды в Карпогорах

АРХИВ ПОГОДЫ в Карпогорах

Время (UTC), дата Ветер
(напр.,м/с)
 
Видим.   Явления Облачность Т
(С)
Тd
(С)
f
(%)
Тe
(С)
Тes
(С)
Комфортность P
(гПа)
Po
(гПа)
Тmin
(С)
Tmax
(С)
R
(мм)
R24
(мм)
S
(см)
18 14.09 С 1 10 км слаб. ливневой дождь 10/6 300 м
[Cb cap Ac As]
+10.8 +10.6 99 +10 +10 990.0 982.6
21 14.09 З 1 4000 м слаб. дождь 10/10 240 м
[Frnb Ns]
+10.4 +10.2 99 +10 +10 988.9 981.4
00 15.09 З 2 4000 м слаб. дождь 10/10 240 м
[Frnb Ns]
+9.8 +9.6 99 +8 +8 988.0 980.5
03 15.09 З 3 4000 м дождь 10/10 300 м
[Frnb Ns]
+8.7 +8.4 98 +6 +6 987.9 980.4 +8.7 20
06 15.09 З 3
{10}
4000 м слаб. ливневой дождь 10/9 450 м
[Cb cap Ac As]
+7.6 +7.0 96 +5 +5 987.7 980.2 +7.6
09 15.09 З 4-11
{11}
4000 м слаб. ливневой дождь 10/10 540 м
[Cb cap]
+7.6 +7.0 96 +4 +4 988.1 980.6
12 15.09 З 4-10
{12}
10 км слаб. ливневой дождь 10/8 630 м
[Cb cap Ac As]
+7.1 +6.2 94 +3 +3 989.4 981.8
15 15.09 З 4-10
{12}
4000 м слаб. ливневой дождь 10/10 540 м
[Cb cap]
+6.3 +5.6 95 +2 +2 990.3 982.7 +8.7 20
18 15.09 З 3
{12}
10 км слаб. ливневой дождь 10/10 600 м
[Cb cap]
+6.0 +5.2 95 +3 +3 989.9 982.3
21 15.09 З 2
{11}
10 км слаб. дождь 10/0
[As op]
+5.5 +4.7 95 +3 +3 989.4 981.8
00 16.09 ЮЗ 2 20 км {ливн. осадки, дождь} 10/0
[Ac As]
+5.2 +4.0 92 +2 +2 989.0 981.4
03 16.09 ЮЗ 2 20 км 8/0
[Ac As]
+4.5 +3.4 93 +2 +2 988.3 980.7 +4.5 7
06 16.09 ЮЗ 2 20 км 8/3 600 м
[Cb cap Ac As]
+6.4 +4.3 86 +4 +5 987.2 979.7 +4.3
09 16.09 Ю 2 20 км 10/8 630 м
[Cb cap Ac As]
+7.3 +4.8 84 +5 +5 986.7 979.2
12 16.09 Ю 2 20 км 10/6 600 м
[Cb cap Ac As]
+7.5 +4.5 81 +5 +6 986.5 979.0
15 16.09 Ю 1 20 км 8/3 600 м
[Sc Ac trans Ci fib]
+6.1 +4.6 90 +5 +5 986.4 978.9 +8.3
18 16.09 СВ 1 4000 м дымка 9/0
[Ac trans]
+4.0 +3.7 98 +2 +2 986.1 978.5
21 16.09 штиль 0 4000 м дымка 9/0
[Ac As]
+3.7 +3.6 99 +2 +2 985.8 978.2
00 17.09 штиль 0 500 м туман ?/? +2.6 +2.4 99 +1 +1 986.0 978.3
03 17.09 штиль 0 200 м туман ?/? +3.0 +3.0 100 +2 +2 986.4 978.7 +2.4
06 17.09 В 1 20 км {туман} 10/8 240 м
[St Ac und]
+6.0 +5.8 99 +5 +5 987.1 979.5
09 17.09 СВ 2 20 км 9/8 540 м
[Cb cap Ac trans Ci fib]
+8.8 +4.5 74 +7 +8 988.1 980.6
12 17.09 С 1 20 км 9/4 600 м
[Sc Ac trans]
+9.0 +5.1 77 +8 +9 989.4 981.9
15 17.09 С 1 20 км 9/0
[Ac trans]
+7.9 +5.8 87 +7 +7 990.5 983.0 +9.9
18 17.09 С 1 20 км 9/6 1110 м
[Sc Ac trans]
+6.3 +5.3 93 +5 +5 991.6 984.0
21 17.09 С 1 20 км 10/4 1000 м
[Sc Ac As]
+6.4 +4.6 88 +5 +5 992.4 984.8
00 18.09 С 2 20 км 9/8 360 м
[Cb cap Ac trans]
+6.4 +5.2 92 +4 +4 993.5 985.9
03 18.09 С 2 20 км {ливн. осадки} 10/8 540 м
[Cb cap Ac As]
+4.5 +3.0 90 +2 +2 995.1 987.5 +4.5 0.1
06 18.09 СВ 4 20 км {ливн. осадки} 6/3 300 м
[Sc Ac trans]
+5.3 +1.2 75 +1 +2 996.6 989.0 +4.3
09 18.09 С 2 20 км 8/6 600 м
[Cb cap Ac trans]
+7.3 +0.3 61 +6 +7 998.2 990.6
12 18.09 С 2 50 км в посл. час ливневой дождь 6/5 600 м
[Cb cap Ac trans]
+8.6 -1.1 50 +7 +8 999.4 991.8
15 18.09 С 2 50 км 6/4 600 м
[Cb cap Ac trans Ci fib]
+5.3 +0.7 72 +3 +3 1000.7 993.0 +8.6 0.0
18 18.09 С 2 20 км 3/0
[Ac trans Ci fib]
+2.1 +0.7 90 -1 -1 1001.7 993.9
21 18.09 С 1 20 км 3/0
[Ci fib]
0.0 -0.2 99 -2 -2 1002.4 994.5
00 19.09 З 1 20 км 6/0
[Ci fib]
-2.2 -2.3 99 -5 -5 1003.0 995.1
03 19.09 З 1 20 км 8/0
[Ac trans Ci fib]
-1.4 -1.4 100 -4 -4 1003.2 995.3 -2.4
06 19.09 СЗ 1 20 км 9/5 1000 м
[Cb cap Ac As]
+2.5 +1.5 93 +1 +1 1003.9 996.1
09 19.09 СЗ 2 20 км слаб. ливневой дождь 9/6 600 м
[Cb cap Ac As]
+6.0 +1.6 73 +4 +5 1004.7 997.0
12 19.09 СЗ 2 20 км {ливн. осадки} 8/5 1000 м
[Cb cap Ac trans]
+5.9 +0.4 68 +4 +4 1005.4 997.7
15 19.09 СЗ 1 20 км ясно +2.5 -0.5 81 +1 +1 1006.9 999.0 +7.0 0.0
18 19.09 штиль 0 20 км 6/0
[Ac trans]
-2.4 -2.6 99 -4 -4 1007.2 999.2
21 19.09 З 1 10 км 3/0
[Ac trans]
-2.5 -2.6 99 -5 -5 1007.0 999.0
00 20.09 ЮЗ 1 4000 м дымка 5/0
[Ac trans]
-3.1 -3.1 100 -6 -6 1007.3 999.3
03 20.09 ЮЗ 1 10 км 3/0
[Ac trans]
-3.0 -3.0 100 -6 -6 1006.6 998.6 -3.6
06 20.09 ЮЗ 1 20 км {туман} 10/8 210 м
[St Ac As]
+0.5 +0.5 100 -2 -2 1006.1 998.2
09 20.09 З 2 20 км 9/6 600 м
[Cb cap Ac cuf Ci fib]
+5.3 +0.6 72 +3 +4 1005.4 997.7
12 20.09 З 2 20 км в посл. час ливневой дождь 9/4 600 м
[Cb cap Cs]
+4.1 +1.2 81 +1 +2 1005.1 997.3
15 20.09 Ю 1 20 км 9/3 600 м
[Sc Ac lent Cs]
+2.7 +0.4 85 +1 +1 1004.8 997.0 +6.0 1
18 20.09 ЮВ 1 20 км 3/0
[Ci fib]
-0.6 -1.0 97 -3 -3 1003.9 996.0
21 20.09 ЮЗ 1 20 км 3/0
[Ci fib]
-0.4 -2.2 88 -2 -2 1002.5 994.7
00 21.09 ЮЗ 2 20 км 10/0
[Ac As]
+0.5 -0.9 90 -3 -3 1001.2 993.4
03 21.09 ЮЗ 1 20 км {ливн. осадки} 10/10 270 м
[Cb cap]
+1.0 +0.7 98 -1 -1 1000.4 992.6 -0.9 0.0
06 21.09 З 2 4000 м слаб. ливневой дождь 10/10 360 м
[Cb cap]
+2.7 +2.3 97 -1 -1 1000.0 992.2
09 21.09 З 3 20 км в посл. час ливневой дождь 9/8 300 м
[Cb cap Ac trans Ci fib]
+5.2 +1.8 79 +2 +2 1000.0 992.3
12 21.09 З 3
{10}
20 км в посл. час ливневой дождь 8/5 600 м
[Cb cap Ac trans Ci fib]
+6.4 +1.1 69 +4 +4 1000.3 992.7
15 21.09 штиль 0 20 км в посл. час ливневой дождь 8/6 330 м
[Cb cap Ac trans Ci fib]
+1.7 +1.0 95 0 0 1000.4 992.6 +6.6 2

 

Местоположение метеостанции Карпогоры (Архангельская область, Россия): широта 63.98 долгота 44.45 высота над уровнем моря 65 м.

В архиве по умолчанию представлена погода в Карпогорах за последнюю неделю. Архивные данные за месяц целиком и за предыдущие месяцы, начиная с января 2011 года, Вы можете получить, выбрав интересующий диапазон дат из раскрывающегося списка и нажав кнопку "Ввод!".


*Определитесь, кто Вы:
робот инопланетянин человек

Внимание! Время в таблицах - всемирное. Для получения местного времени необходимо прибавить поправку, которая равна 3 ч.

Смотрите также архив погоды в соседних городах и на ближайших метеорологических станциях:

Погода в Суре (Архангельская область, Россия) (73 км)
Погода в Пинеге (Архангельская область, Россия) (97 км)
Погода в Лешуконском (Архангельская область, Россия) (120 км)
Погода в Холмогорах (Архангельская область, Россия) (138 км)
Погода в Емецке (Архангельская область, Россия) (142 км)
Погода в Двинском Березнике (Архангельская область, Россия) (150 км)
Погода в Койнасе (Архангельская область, Россия) (176 км)
Погода в Вендинге (Коми, Россия) (181 км)
Погода в Архангельске (Архангельская область, Россия) (189 км)
Погода в Верхней Тойме (Архангельская область, Россия) (197 км)

Пояснения к столбцам:

Ветер - указаны скорость ветра в м/с - средняя за 10 мин, порывы в срок и между сроками (в фигурных скобках) и направление, откуда дует ветер: С - северный, СВ - северо-восточный, В - восточный, ЮВ - юго-восточный, Ю - южный, ЮЗ - юго-западный, З - западный, СЗ - северо-западный.
Видимость - горизонтальная дальность видимости в метрах или километрах. При видимости от 1 до 10 км при отсутствии осадков обычно наблюдается дымка, при ухудшении видимости до 1 км и менее - туман. В сухую погоду видимость может ухудшаться дымом, пылью или мглою.
Явления - указаны атмосферные явления, наблюдавшиеся в срок или в последний час перед сроком; фигурными скобками обозначены явления, наблюдавшиеся между сроками (за 1-3 часа до срока); квадратными скобками обозначены град или гололедные отложения с указанием их диаметра в мм.
Облачность - указаны через наклонную черту общая и нижняя облачность в баллах и высота нижней границы облаков в метрах; квадратными скобками обозначены формы облаков: Ci - перистые, Cs - перисто-слоистые, Cc - перисто-кучевые, Ac - высококучевые, As - высокослоистые, Sc - слоисто-кучевые, Ns - слоисто-дождевые, Cu - кучевые, Cb - кучево-дождевые. Подробнее классификацию облаков см. в Атласе облаков (PDF).
T - Температура воздуха - температура, измеренная на высоте 2 м над землей.
Td - Температура точки росы - температура, при понижении до которой содержащийся в воздухе водяной пар достигнет насыщения.
f - Относительная влажность воздуха - влажноcть воздуха, измеренная на высоте 2 м над землей.
Te - Эффективная температура - температура, которую ощущает одетый по сезону человек в тени. Характеристика душности погоды. При расчете учитывается влияние влажности воздуха и скорости ветра на теплоощущения человека.
Tes - Эффективная температура на солнце - температура, которую ощущает человек, с поправкой на солнечный нагрев. Характеристика знойности погоды. Зависит от высоты солнца над горизонтом, облачности и скорости ветра. Ночью, в пасмурную погоду, а также при ветре 12 м/с и более поправка равна нулю.
P - Атмосферное давление - приведенное к уровню моря атмосферное давление.
Po - Атмосферное давление - измеренное на уровне метеостанции атмосферное давление.
Tmin - Минимальная температура - минимум температуры воздуха на высоте 2 м над землей.
Tmax - Максимальная температура - максимум температуры воздуха на высоте 2 м над землей.
R - Количество осадков - Количество выпавших осадков за период времени, мм. При наведении курсора мыши на число - период времени, за который выпало указанное количество осадков.
R24 - Количество осадков - Количество выпавших осадков за 24 часа, мм.
S - Снежный покров - Высота снежного покрова, см. При наведении курсора мыши на число - состояние снежного покрова и степень покрытия местности в баллах.